CW9414 Weather Reports


time (UTC)temp
C
wind
direction
speed
KPH
gust
KPH
rain 1hr
cm
rain 24hr
cm
rain mn
cm
humidity
%
barometer
mb
20260506160409 26 150 0.0 8.0 0.00 0.00 0.00 83 1006.5
20260506155409 26 150 0.0 1.6 0.00 0.00 0.00 84 1006.4
20260506154409 26 150 0.0 6.4 0.00 0.00 0.00 84 1006.4
20260506153412 26 150 1.6 3.2 0.00 0.00 0.00 85 1006.4
20260506152409 26 150 0.0 1.6 0.00 0.00 0.00 86 1006.0
20260506151412 26 150 0.0 3.2 0.00 0.00 0.00 86 1006.0
20260506150409 26 150 1.6 6.4 0.00 0.00 0.00 87 1006.0
20260506145409 26 150 1.6 8.0 0.00 0.00 0.00 88 1005.6
20260506144409 25 150 1.6 8.0 0.00 0.00 0.00 89 1005.4
20260506143409 25 150 0.0 4.8 0.00 0.00 0.00 90 1005.4
20260506142409 25 150 0.0 4.8 0.00 0.00 0.00 91 1005.5
20260506141412 25 150 3.2 3.2 0.00 0.00 0.00 92 1005.5
20260506140409 25 150 3.2 8.0 0.00 0.00 0.00 92 1005.5
20260506135409 25 150 0.0 4.8 0.00 0.00 0.00 92 1005.5
20260506134409 25 150 0.0 4.8 0.00 0.00 0.00 93 1005.5
20260506133408 25 150 0.0 3.2 0.00 0.00 0.00 93 1005.5
20260506132410 24 150 1.6 1.6 0.00 0.00 0.00 93 1005.6
20260506131409 24 150 0.0 1.6 0.00 0.00 0.00 92 1005.6
20260506130413 24 150 0.0 3.2 0.00 0.00 0.00 92 1005.6
20260506125409 24 150 0.0 3.2 0.00 0.00 0.00 92 1005.6
20260506124408 24 150 3.2 3.2 0.00 0.00 0.00 92 1005.5
20260506123409 23 150 0.0 0.0 0.00 0.00 0.00 92 1005.5
20260506122412 23 150 0.0 3.2 0.00 0.00 0.00 92 1005.4
20260506121409 23 150 0.0 3.2 0.00 0.00 0.00 92 1005.2
20260506120409 23 150 0.0 3.2 0.00 0.00 0.00 91 1005.2
20260506115409 23 150 0.0 0.0 0.00 0.00 0.00 91 1005.0
20260506114409 23 150 0.0 1.6 0.00 0.00 0.00 91 1004.9
20260506113408 23 150 0.0 3.2 0.00 0.00 0.00 91 1004.9
20260506112409 23 150 3.2 3.2 0.00 0.00 0.00 91 1004.7
20260506111408 23 150 0.0 3.2 0.00 0.00 0.00 90 1004.5
20260506110408 23 150 0.0 8.0 0.00 0.00 0.00 90 1004.5
20260506105409 23 150 0.0 4.8 0.00 0.00 0.00 90 1004.4
20260506104409 23 150 0.0 0.0 0.00 0.00 0.00 89 1004.5
20260506103408 23 150 0.0 3.2 0.00 0.00 0.00 89 1004.5
20260506102409 23 150 0.0 0.0 0.00 0.00 0.00 89 1004.5
20260506101412 23 150 0.0 0.0 0.00 0.00 0.00 89 1004.5
20260506100412 24 150 0.0 4.8 0.00 0.00 0.00 89 1004.5
20260506095408 24 150 4.8 8.0 0.00 0.00 0.00 89 1004.2
20260506094409 24 150 0.0 6.4 0.00 0.00 0.00 88 1004.1
20260506093408 24 150 0.0 6.4 0.00 0.00 0.00 88 1004.1
20260506092408 24 150 1.6 8.0 0.00 0.00 0.00 88 1004.1
20260506091408 24 150 6.4 9.7 0.00 0.00 0.00 88 1004.4
20260506090408 25 150 4.8 6.4 0.00 0.00 0.00 88 1004.4
20260506085409 25 150 0.0 6.4 0.00 0.00 0.00 88 1004.5
20260506084408 25 150 4.8 9.7 0.00 0.00 0.00 88 1004.5
20260506083408 25 150 3.2 6.4 0.00 0.00 0.00 87 1004.5
20260506082408 25 150 1.6 8.0 0.00 0.00 0.00 87 1004.6
20260506081411 25 150 4.8 6.4 0.00 0.00 0.00 87 1004.6
20260506080408 25 150 1.6 8.0 0.00 0.00 0.00 87 1004.6
20260506073409 25 155 3.2 8.0 0.00 0.00 0.00 87 1005.0
20260506072409 25 155 3.2 9.7 0.00 0.00 0.00 87 1005.0
20260506071408 25 156 4.8 6.4 0.00 0.00 0.00 87 1005.1
20260506070412 25 156 0.0 4.8 0.00 0.00 0.00 87 1005.1
20260506062408 25 155 0.0 4.8 0.00 0.00 0.00 86 1005.5
20260506061409 25 155 0.0 6.4 0.00 0.00 0.00 86 1005.5
20260506060412 25 155 0.0 8.0 0.00 0.00 0.00 86 1005.5
20260506051408 25 155 0.0 6.4 0.00 0.00 0.00 85 1005.3
20260506050408 25 155 0.0 6.4 0.00 0.00 0.00 84 1005.3
20260506044408 25 155 0.0 4.8 0.00 0.00 0.00 83 1005.5
20260506043408 25 155 1.6 3.2 0.00 0.00 0.00 83 1005.5
20260506042408 25 155 0.0 6.4 0.00 0.00 0.00 83 1005.1
20260506041408 25 155 0.0 11.3 0.00 0.00 0.00 82 1005.3
20260506040412 25 164 3.2 6.4 0.00 0.00 0.00 82 1005.3
20260506035412 25 170 0.0 4.8 0.00 0.00 0.00 82 1005.1
20260506034408 25 168 1.6 8.0 0.00 0.00 0.00 81 1004.8
20260506033408 25 170 0.0 6.4 0.00 0.00 0.00 81 1004.8
20260506032408 25 142 4.8 11.3 0.00 0.00 0.00 81 1004.6
20260506031408 26 161 4.8 8.0 0.00 0.00 0.00 81 1004.6
20260506030408 26 165 1.6 8.0 0.00 0.00 0.00 80 1004.6
20260506025412 26 167 4.8 9.7 0.00 0.00 0.00 80 1004.5
20260506024411 26 196 0.0 8.0 0.00 0.00 0.00 79 1004.2
20260506023408 26 170 4.8 8.0 0.00 0.00 0.00 79 1004.2
20260506022409 26 155 1.6 8.0 0.00 0.00 0.00 79 1004.0
20260506021408 26 166 1.6 6.4 0.00 0.00 0.00 78 1003.9
20260506020408 26 183 1.6 4.8 0.00 0.00 0.00 77 1003.9
20260506015408 26 192 1.6 8.0 0.00 0.00 0.00 77 1003.6
20260506014411 26 188 1.6 6.4 0.00 0.00 0.00 76 1003.5
20260506013411 26 159 6.4 6.4 0.00 0.00 0.00 75 1003.5
20260506012408 26 161 1.6 8.0 0.00 0.00 0.00 75 1003.0
20260506011408 26 178 0.0 11.3 0.00 0.00 0.00 74 1003.0
20260506010411 26 139 0.0 14.5 0.00 0.00 0.00 74 1003.0
20260506005408 26 209 1.6 8.0 0.00 0.00 0.00 73 1003.0
20260506004408 27 210 4.8 6.4 0.00 0.00 0.00 72 1002.7
20260506003408 27 150 3.2 12.9 0.00 0.00 0.00 72 1002.8
20260506002408 27 153 3.2 11.3 0.00 0.00 0.00 71 1002.8
20260506001409 27 190 9.7 9.7 0.00 0.00 0.00 72 1002.9
20260506000408 27 148 12.9 12.9 0.00 0.00 0.00 71 1002.9
20260505235408 27 192 3.2 12.9 0.00 0.00 0.00 71 1002.6
20260505234408 27 197 4.8 8.0 0.00 0.00 0.00 71 1002.6
20260505233411 27 148 3.2 9.7 0.00 0.00 0.00 71 1002.6
20260505232408 27 138 11.3 16.1 0.00 0.00 0.00 70 1002.7
20260505231408 27 153 4.8 9.7 0.00 0.00 0.00 70 1002.7
20260505230408 28 142 1.6 9.7 0.00 0.00 0.00 71 1002.7
20260505225408 28 126 4.8 11.3 0.00 0.00 0.00 71 1002.7
20260505224408 28 153 0.0 11.3 0.00 0.00 0.00 70 1002.8
20260505223408 28 203 3.2 12.9 0.00 0.00 0.00 69 1002.8
20260505222411 28 174 4.8 11.3 0.00 0.00 0.00 69 1002.9
20260505221411 28 163 8.0 16.1 0.00 0.00 0.00 68 1002.9
20260505220411 28 173 3.2 12.9 0.00 0.00 0.00 67 1002.9
20260505215408 28 145 1.6 12.9 0.00 0.00 0.00 67 1003.1
20260505214409 29 167 3.2 8.0 0.00 0.00 0.00 67 1003.3
20260505213411 29 203 4.8 16.1 0.00 0.00 0.00 67 1003.3
20260505212408 28 185 4.8 14.5 0.00 0.00 0.00 67 1003.5
20260505211407 28 209 4.8 12.9 0.00 0.00 0.00 68 1003.6
20260505210408 28 141 6.4 17.7 0.00 0.00 0.00 68 1003.6
20260505205407 28 153 4.8 16.1 0.00 0.00 0.00 68 1004.0
20260505204407 28 205 3.2 14.5 0.00 0.00 0.00 68 1004.1
20260505203408 28 185 8.0 19.3 0.00 0.00 0.00 68 1004.1
20260505202407 28 174 3.2 16.1 0.00 0.00 0.00 68 1004.3
20260505201408 28 170 6.4 17.7 0.00 0.00 0.00 68 1004.5
20260505200407 28 182 3.2 11.3 0.00 0.00 0.00 69 1004.5
20260505195407 28 127 1.6 11.3 0.00 0.00 0.00 69 1004.6
20260505194407 28 170 1.6 8.0 0.00 0.00 0.00 71 1004.7
20260505193411 28 169 0.0 8.0 0.00 0.00 0.00 72 1004.7
20260505192407 27 144 3.2 9.7 0.00 0.00 0.00 72 1005.0
20260505191407 27 157 3.2 16.1 0.00 0.00 0.00 72 1004.9
20260505190407 27 138 1.6 12.9 0.00 0.00 0.00 72 1004.9
20260505185407 28 169 3.2 14.5 0.00 0.00 0.00 72 1005.1
20260505184408 27 159 9.7 19.3 0.00 0.00 0.00 73 1005.1
20260505183408 27 139 6.4 14.5 0.00 0.00 0.00 73 1005.1
20260505182407 27 186 6.4 9.7 0.00 0.00 0.00 74 1005.2
20260505181410 27 229 8.0 9.7 0.00 0.00 0.00 75 1005.4
20260505180408 27 155 0.0 17.7 0.00 0.00 0.00 75 1005.4
20260505175408 27 126 3.2 8.0 0.00 0.00 0.00 76 1005.6
20260505174407 27 139 11.3 11.3 0.00 0.00 0.00 76 1005.6
20260505173407 26 196 3.2 12.9 0.00 0.00 0.00 76 1005.6
20260505172408 26 184 6.4 14.5 0.00 0.00 0.00 76 1005.5
20260505171407 26 136 3.2 14.5 0.00 0.00 0.00 77 1005.6
20260505170408 26 142 6.4 14.5 0.00 0.00 0.00 77 1005.6
20260505165407 26 184 4.8 16.1 0.00 0.00 0.00 79 1005.6
20260505164407 26 142 4.8 12.9 0.00 0.00 0.00 81 1005.6
20260505163407 26 126 0.0 9.7 0.00 0.00 0.00 82 1005.6
20260505162407 25 178 1.6 9.7 0.00 0.00 0.00 82 1005.6
20260505161407 25 148 1.6 12.9 0.00 0.00 0.00 82 1005.6